Regional Weather Roundup
Issued by NWS

Home | Current Version | Previous Version | Text Only | Print | Product List | Glossary Off
Versions: 1 2 3 4 5 6 7 8 9 10 11 12 13 14 15 16 17 18 19 20 21 22 23 24 25 26 27 28 29 30 31 32 33 34 35 36 37 38 39 40 41 42 43 44 45 46 47 48 49 50

000
ASUS45 KTFX 170319
RWRMT
MONTANA HOURLY WEATHER ROUNDUP
NATIONAL WEATHER SERVICE GREAT FALLS MT
919 PM MDT TUE SEP 16 2014

NOTE: "FAIR" INDICATES FEW OR NO CLOUDS BELOW 12000 FEET WITH NO
SIGNIFICANT WEATHER AND/OR OBSTRUCTIONS TO VISIBILITY.

* THESE STATIONS ARE NOT UNDER NWS QUALITY CONTROL. THEY DO NOT
   REPORT WEATHER SUCH AS PRECIPITATION OR FOG.

MTZ001>007-043-170400-
WEST OF THE DIVIDE
CITY           SKY/WX    TMP DP  RH WIND       PRES   REMARKS
KALISPELL      CLOUDY    57  46  67 CALM      29.90R
MISSOULA       MOCLDY    68  43  40 CALM      29.92R
BUTTE          MOCLDY    63  43  48 W3        30.08R
MULLAN PASS    MOCLDY    64  37  37 N3        30.06S
* ESSEX        N/A       59  48  67 NE2        N/A
* LINCOLN      N/A       64  43  47 NE2        N/A
* LOOKOUT PASS N/A       63  42  46 NE1        N/A
* POLSON       N/A       61  44  54 N/A        N/A
* RONAN APT    CLOUDY    61  46  58 N/A        N/A
* SEELEY LAKE  N/A       63  42  46 E1         N/A
* THOMP F APT  CLOUDY    60  37  43 N5G15      N/A
$$

MTZ008-052>055-170400-
SOUTHWEST MONTANA
CITY           SKY/WX    TMP DP  RH WIND       PRES   REMARKS
BOZEMAN        PTCLDY    61  45  56 S6        30.01R
DILLON         CLOUDY    61  45  56 VRB3      30.05R
W YELLOWSTONE  MOCLDY    54  41  62 CALM      30.17S
* THREE FORKS  PTCLDY    57  57 100 N/A        N/A
* BOULDER HILL N/A       64  38  38 E2G26      N/A
* MONIDA PASS  N/A       51  44  77 W3         N/A
* RAYNOLDS PAS N/A       53  31  43 SE4        N/A
* WHITEHALL    N/A       63  42  46 NE3        N/A
* WISE RIVER   N/A       62  40  45 SE4        N/A
$$

MTZ009>010-012-014-046-048-049-054-170400-
EAST SLOPES AND CENTRAL MONTANA
CITY           SKY/WX    TMP DP  RH WIND       PRES   REMARKS
CUT BANK       CLOUDY    64  39  40 W5        29.91S
GREAT FALLS    CLOUDY    64  45  50 SW7       29.91R
HELENA         LGT RAIN  68  48  49 W8        29.98R
MALMSTROM AFB  CLOUDY    64  48  56 S5        29.91R
* CONRAD       CLOUDY    64  46  52 N/A        N/A
* EAST GLACIER N/A       64  38  38 W4         N/A
* MONARCH      N/A       59  38  46 S9         N/A
* PENDROY      N/A       68  40  36 NW14       N/A
* ROGERS PASS  N/A       61  42  50 NW4        N/A
* SAINT MARY   N/A       57  41  55 SE3        N/A
* SWEET GRASS  N/A       68  37  32 S10        N/A
* WHITE SULPH  N/A       61  39  44 NE6        N/A
$$

MTZ011-013-016-021-035-040-045-047-050-051-170400-
NORTH CENTRAL MONTANA
CITY           SKY/WX    TMP DP  RH WIND       PRES   REMARKS
HAVRE          MOCLDY    59  46  62 SE3       29.87S
LEWISTOWN      CLOUDY    61  52  72 SE8       29.97R
* CHINOOK      PTCLDY    61  52  72 CALM      29.87S
* FORT BENTON  CLOUDY    72  43  35 CALM      29.88R
* CHESTER      N/A       66  39  37 SE3        N/A
* DENTON       N/A       63  43  48 SE6        N/A
* GEYSER       N/A       59  47  65 SW4        N/A
* JUDITH GAP   N/A       62  41  46 SW1        N/A
* LOMA         N/A       65  47  52 NE9        N/A
$$

MTZ017>020-022>027-061-062-170400-
NORTHEAST MONTANA
CITY           SKY/WX    TMP DP  RH WIND       PRES   REMARKS
GLASGOW        PTCLDY    61  39  44 E8        29.88S
JORDAN         MOCLDY    63  48  58 CALM      29.90S
SIDNEY         CLEAR     50  39  66 N6        29.93R
WOLF POINT     PTCLDY    57  39  51 CALM      29.90R
* BEAVER HILL  N/A       60  44  56 E8         N/A
* CIRCLE       N/A       58  46  65 N/A        N/A
* LINDSAY DVD  N/A       54  42  64 SE1        N/A
* NAVAJO       N/A       57  39  51 SW4        N/A
* SACO         N/A       57  47  69 NE4G9      N/A
$$

MTZ028>042-056>058-170400-
SOUTHCENTRAL AND SOUTHEAST MONTANA
CITY           SKY/WX    TMP DP  RH WIND       PRES   REMARKS
BAKER          CLOUDY    57  46  67 CALM      29.95S
BILLINGS       MOCLDY    73  39  29 SW12      29.94S
LIVINGSTON     MOCLDY    72  41  33 SW20G28   29.99R
MILES CITY     CLOUDY    66  43  43 SE5       29.91S
* LAUREL APT   MOCLDY    66  39  37 N/A        N/A
* ROUNDUP APT  MOCLDY    64  45  50 N/A        N/A
* ALZADA       N/A       59  42  53 SE2        N/A
* HYSHAM       N/A       68  43  40 E2         N/A
* LAME DEER    N/A       68  43  40 E5         N/A
* REED POINT   N/A       64  47  54 W4G9       N/A
* ROSCOE HILL  N/A       68  30  24 SW2G15     N/A
$$

REGIONAL REPORTS...DAKOTAS
CITY           SKY/WX    TMP DP  RH WIND       PRES   REMARKS
WILLISTON      HAZE      48  39  71 N3        29.91S
DICKINSON      PTCLDY    54  45  72 E6        29.93R
BEACH          N/A       50  46  86 S3        29.94F
CROSBY         CLEAR     48  46  93 SW8       29.91S
TIOGA          CLEAR     45  39  80 CALM      29.96S
WATFORD CITY   CLEAR     48  37  66 CALM      29.91R
BISMARCK       CLEAR     54  46  74 NE6       29.92S
GRAND FORKS    PTCLDY    52  45  77 S7        29.91F
FARGO          CLEAR     57  46  67 SE7       29.93S
BUFFALO SD     PTCLDY    64  46  52 NE7       29.88F
RAPID CITY     CLEAR     55  46  72 NW5       29.96R
$$

REGIONAL REPORTS...WYOMING/IDAHO/WASHINGTON
CITY           SKY/WX    TMP DP  RH WIND       PRES   REMARKS
GILLETTE       PTCLDY    50  43  77 SW6       30.02R
SHERIDAN       MOCLDY    57  46  67 CALM      30.00S
CODY           PTCLDY    59  45  60 S5        30.07S
YELLOWSTONE LA PTCLDY    48  39  71 CALM      30.27S
SALMON         PTCLDY    57  46  67 SE3       29.96R
MULLAN PASS    MOCLDY    64  37  37 N3        30.06S
SAND POINT     CLOUDY    59  52  78 CALM      29.84S
SPOKANE        CLOUDY    75  36  24 S3        29.83S
$$

REGIONAL REPORTS...ALBERTA
CITY           SKY/WX    TMP DP  RH WIND       PRES   REMARKS
CALGARY        FAIR      63  43  48 CALM      29.90R
LETHBRIDGE     PTCLDY    55  43  64 E6        29.86R
MEDICINE HAT   N/A       64  48  56 E6        29.85R
EDMONTON       FAIR      55  45  69 SW3       29.84R
WATERTON GATE  N/A       59  43  56 SW5        N/A
CARDSTON       N/A       63  43  48 SW7        N/A
$$

REGIONAL REPORTS...SASKATCHEWAN
CITY           SKY/WX    TMP DP  RH WIND       PRES   REMARKS
SWIFT CURRENT  CLEAR     63  41  45 NE3       29.89R
REGINA         FAIR      55  46  72 S5        29.88S
VAL MARIE      N/A       54  46  74 SW3        N/A
ASSINIBOIA     N/A       59  43  56 S7         N/A
CORONACH       N/A       57  41  55 SE5        N/A

$$




USA.gov is the U.S. government's official web portal to all federal, state and local government web resources and services.